Hurlburt Field, FL

8:27 PM CST on February 19, 2018 (GMT -0600)
Hurlburt

Weather History for KHRT - March, 2013

Change the Weather History Date:

Wednesday, March 13, 2013

  Actual Average Record
Temperature  
Mean Temperature 52 °F -  
Max Temperature 66 °F 66 °F 78 °F (2001)
Min Temperature 39 °F 49 °F 28 °F (1998)
Degree Days  
Heating Degree Days 12    
Growing Degree Days 2 (Base 50)    
Moisture  
Dew Point 36 °F    
Average Humidity 55    
Maximum Humidity 92    
Minimum Humidity 26    
Precipitation  
Precipitation 0.00 in - - ()
Sea Level Pressure  
Sea Level Pressure 30.25 in    
Wind  
Wind Speed 8 mph (NNW)    
Max Wind Speed 17 mph    
Max Gust Speed 26 mph    
Visibility 10 miles    
Events      
Averages and records for this station are not official NWS values.
T = Trace of Precipitation, MM = Missing Value Source: NWS Daily Summary

Daily Weather History Graph

Daily Weather History Graph

Search for Another Location

Airport or City:

Trip Planner

Search our weather history database for the weather conditions in past years. The results will help you decide how hot, cold, wet, or windy it might be!

Date:

Astronomy

Mar. 13, 2013 Rise Set
Actual Time 6:58 AM CDT 6:53 PM CDT
Civil Twilight 6:34 AM CDT 7:17 PM CDT
Nautical Twilight 6:06 AM CDT 7:45 PM CDT
Astronomical Twilight 5:39 AM CDT 8:13 PM CDT
Moon 7:48 AM CDT (3/13) 8:56 PM CDT (3/13)
Length of Visible Light 12h 43m
Length of Day
11h 55m
Waxing Crescent, 4% of the Moon is Illuminated
Mar 13
Waxing Crescent
Mar 19
First Quarter
Mar 27
Full
Apr 2
Last Quarter
Apr 10
New

Hourly Weather History & Observations

Time (CDT) Temp. Windchill Dew Point Humidity Pressure Visibility Wind Dir Wind Speed Gust Speed Precip Events Conditions
12:58 AM 44.6 °F 43.1 °F 41.4 °F 88% 30.18 in 10.0 mi North 3.5 mph - N/A   Clear
1:58 AM 42.3 °F 38.6 °F 40.1 °F 92% 30.18 in 10.0 mi North 5.8 mph - N/A   Clear
2:58 AM 46.2 °F 44.1 °F 38.5 °F 74% 30.18 in 10.0 mi North 4.6 mph - N/A   Clear
3:58 AM 41.4 °F 36.8 °F 39.0 °F 91% 30.19 in 10.0 mi North 6.9 mph - N/A   Clear
4:58 AM 40.6 °F 36.0 °F 38.5 °F 92% 30.21 in 10.0 mi North 6.9 mph - N/A   Clear
5:58 AM 40.1 °F 34.7 °F 37.8 °F 91% 30.23 in 10.0 mi North 8.1 mph - N/A   Clear
6:58 AM 39.0 °F 33.4 °F 36.9 °F 92% 30.25 in 10.0 mi North 8.1 mph - N/A   Clear
7:58 AM 44.1 °F 42.5 °F 40.5 °F 87% 30.28 in 10.0 mi North 3.5 mph - N/A   Clear
8:58 AM 52.5 °F - 42.4 °F 69% 30.29 in 10.0 mi North 8.1 mph - N/A   Clear
9:58 AM 59.7 °F - 40.3 °F 49% 30.30 in 10.0 mi NNW 12.7 mph - N/A   Clear
10:58 AM 62.8 °F - 40.1 °F 43% 30.30 in 10.0 mi North 17.3 mph - N/A   Clear
11:58 AM 65.3 °F - 41.9 °F 42% 30.29 in 10.0 mi NNW 9.2 mph 21.9 mph N/A   Clear
12:58 PM 65.5 °F - 41.2 °F 41% 30.27 in 10.0 mi NNW 15.0 mph 19.6 mph N/A   Clear
1:58 PM 66.2 °F - 39.7 °F 38% 30.24 in 10.0 mi North 10.4 mph 20.7 mph N/A   Clear
2:58 PM 66.0 °F - 37.9 °F 36% 30.22 in 10.0 mi NNW 12.7 mph 24.2 mph N/A   Clear
3:08 PM 66.2 °F - 39.2 °F 37% 30.21 in 10.0 mi NW 12.7 mph 23.0 mph N/A   Clear
3:58 PM 66.4 °F - 35.4 °F 32% 30.21 in 10.0 mi NNW 17.3 mph 26.5 mph N/A   Clear
4:26 PM 66.2 °F - 32.0 °F 28% 30.20 in 10.0 mi NW 16.1 mph 20.7 mph N/A   Clear
4:58 PM 65.5 °F - 31.1 °F 28% 30.21 in 10.0 mi NNW 12.7 mph - N/A   Clear
5:58 PM 63.5 °F - 30.0 °F 28% 30.22 in 10.0 mi North 13.8 mph 20.7 mph N/A   Clear
6:58 PM 59.9 °F - 25.2 °F 26% 30.25 in 10.0 mi NNW 13.8 mph - N/A   Clear
7:58 PM 56.7 °F - 24.6 °F 29% 30.27 in 10.0 mi NNW 10.4 mph - N/A   Clear
8:58 PM 54.9 °F - 24.4 °F 31% 30.28 in 10.0 mi NNW 9.2 mph - N/A   Clear
9:58 PM 48.4 °F - 27.9 °F 45% 30.30 in 10.0 mi North 8.1 mph - N/A   Clear
10:58 PM 48.4 °F - 27.1 °F 44% 30.33 in 10.0 mi North 4.6 mph - N/A   Clear
11:58 PM 44.6 °F 42.2 °F 34.2 °F 67% 30.33 in 10.0 mi NNW 4.6 mph - N/A   Clear